N137EM KSGJ-KTPA

Flight info

Callsign N137EM
Flight time N/A
Altitude 26000
Route CAPOH DADES2
Aircraft CL60/M-VGDW/C

Departure

Time 2026-04-26 20:57
Airport Northeast Florida Regional Airport (KSGJ)

Arrival

Time N/A
Airport Tampa International Airport (KTPA)
Time Latitude Longitude Altitude Speed Heading
2026-04-26 20:44 29.95472 -81.34230 14 ft 0 kts 19°
2026-04-26 20:53 29.95489 -81.34209 14 ft 8 kts 45°
2026-04-26 20:53 29.95548 -81.34148 14 ft 13 kts 41°
2026-04-26 20:53 29.95615 -81.34091 13 ft 11 kts 15°
2026-04-26 20:54 29.95710 -81.34113 13 ft 16 kts 340°
2026-04-26 20:54 29.95829 -81.34162 12 ft 19 kts 341°
2026-04-26 20:54 29.95920 -81.34199 12 ft 19 kts 340°
2026-04-26 20:54 29.96079 -81.34267 12 ft 15 kts 329°
2026-04-26 20:55 29.96155 -81.34370 12 ft 18 kts 306°
2026-04-26 20:55 29.96238 -81.34503 13 ft 21 kts 306°
2026-04-26 20:55 29.96333 -81.34654 14 ft 24 kts 306°
2026-04-26 20:55 29.96432 -81.34808 14 ft 18 kts 309°
2026-04-26 20:56 29.96503 -81.34849 14 ft 8 kts 18°
2026-04-26 20:56 29.96552 -81.34797 14 ft 11 kts 85°
2026-04-26 20:56 29.96480 -81.34667 14 ft 47 kts 126°
2026-04-26 20:56 29.96068 -81.34016 15 ft 148 kts 126°
2026-04-26 20:57 29.95341 -81.32913 505 ft 197 kts 126°
2026-04-26 20:57 29.94443 -81.31515 1422 ft 232 kts 125°
2026-04-26 20:57 29.93344 -81.30018 2408 ft 263 kts 140°
2026-04-26 20:57 29.92262 -81.29326 3184 ft 273 kts 162°
2026-04-26 20:58 29.89799 -81.29230 4921 ft 276 kts 199°
2026-04-26 20:58 29.88655 -81.29855 5877 ft 273 kts 219°
2026-04-26 20:58 29.87476 -81.31473 7271 ft 269 kts 248°
2026-04-26 20:58 29.86695 -81.34138 8870 ft 279 kts 256°
2026-04-26 20:59 29.86113 -81.36287 10103 ft 287 kts 256°
2026-04-26 20:59 29.85513 -81.38488 11345 ft 293 kts 256°
2026-04-26 20:59 29.84871 -81.40853 11816 ft 325 kts 256°
2026-04-26 20:59 29.84176 -81.43407 12418 ft 348 kts 255°
2026-04-26 21:00 29.83437 -81.46106 13265 ft 360 kts 255°
2026-04-26 21:00 29.82668 -81.48910 14278 ft 366 kts 255°
2026-04-26 21:00 29.81914 -81.51652 15293 ft 369 kts 255°
2026-04-26 21:00 29.81152 -81.54419 16328 ft 371 kts 255°
2026-04-26 21:01 29.80376 -81.57237 17337 ft 373 kts 256°
2026-04-26 21:01 29.79585 -81.60107 18246 ft 377 kts 256°
2026-04-26 21:01 29.78787 -81.63003 19100 ft 381 kts 255°
2026-04-26 21:01 29.77967 -81.65974 19921 ft 386 kts 254°
2026-04-26 21:02 29.77144 -81.68950 20679 ft 392 kts 254°
2026-04-26 21:02 29.76299 -81.72003 21456 ft 396 kts 254°
2026-04-26 21:02 29.75742 -81.74012 21931 ft 399 kts 254°
2026-04-26 21:02 29.74921 -81.76977 22616 ft 404 kts 253°
2026-04-26 21:03 29.74060 -81.80080 23335 ft 408 kts 253°